This is the latest recevied weather packets stored in our database for station/object OE6ACM-14. If no packets are shown the sender has not sent any weather packets the latest 10 day(s).
| Time | Temp. | Humidity | Pressure | Rain* | Wind** | Luminosity | Snow |
|---|---|---|---|---|---|---|---|
| 1777719909 | 24.44° C | 21% | 932.7 hPa | - | - | - | - |
| 1777719609 | 23.89° C | 21% | 932.8 hPa | - | - | - | - |
| 1777719309 | 25° C | 21% | 932.9 hPa | - | - | - | - |
| 1777719009 | 25° C | 21% | 933 hPa | - | - | - | - |
| 1777718709 | 25° C | 22% | 933 hPa | - | - | - | - |
| 1777718409 | 24.44° C | 22% | 933.1 hPa | - | - | - | - |
| 1777718109 | 24.44° C | 22% | 933.1 hPa | - | - | - | - |
| 1777717809 | 24.44° C | 23% | 933.2 hPa | - | - | - | - |
| 1777717509 | 24.44° C | 21% | 933.3 hPa | - | - | - | - |
| 1777717209 | 24.44° C | 23% | 933.4 hPa | - | - | - | - |
| 1777716909 | 25° C | 23% | 933.5 hPa | - | - | - | - |
| 1777716609 | 25.56° C | 21% | 933.5 hPa | - | - | - | - |
| 1777716309 | 26.67° C | 21% | 933.6 hPa | - | - | - | - |
| 1777716009 | 27.78° C | 18% | 933.6 hPa | - | - | - | - |
| 1777715709 | 27.78° C | 21% | 933.6 hPa | - | - | - | - |
| 1777715409 | 26.67° C | 20% | 933.7 hPa | - | - | - | - |
| 1777715109 | 28.33° C | 19% | 933.7 hPa | - | - | - | - |
| 1777714809 | 29.44° C | 17% | 933.7 hPa | - | - | - | - |
| 1777714509 | 31.67° C | 17% | 933.7 hPa | - | - | - | - |
| 1777714209 | 31.11° C | 17% | 933.9 hPa | - | - | - | - |
| 1777713909 | 30.56° C | 18% | 934 hPa | - | - | - | - |
| 1777713609 | 30° C | 18% | 934 hPa | - | - | - | - |
| 1777713309 | 31.11° C | 17% | 934.1 hPa | - | - | - | - |
| 1777713009 | 31.67° C | 18% | 934.2 hPa | - | - | - | - |
| 1777712709 | 32.22° C | 16% | 934.2 hPa | - | - | - | - |
* Rain since midnight (hover to see other rain measurements)
** Current wind speed in m/s (hover to see current wind gust speed)